Montana Department of Transportation

Main Content

Accidents and Incidents Report

Hourly Weather Roundup

ASUS45 KTFX 250410
RWRMT 
MONTANA REGIONAL WEATHER ROUNDUP
NATIONAL WEATHER SERVICE GREAT FALLS MT
1000 PM MDT TUE APR 24 2018

NOTE: "FAIR" INDICATES FEW OR NO CLOUDS BELOW 12000 FEET WITH NO
SIGNIFICANT WEATHER AND/OR OBSTRUCTIONS TO VISIBILITY.

MTZ001.007-043-250500-
WEST OF THE DIVIDE
  
CITY           SKY/WX    TMP DP  RH WIND       PRES   REMARKS
KALISPELL      FAIR      44  29  55 CALM      30.19R                  
MISSOULA       FAIR      47  27  45 NW6       30.21R                  
BUTTE          FAIR      39  24  55 E8        30.32R                  
MULLAN PASS    FAIR      49  15  25 SW6       30.26S                  
ANACONDA         N/A     43  16  33 S7        30.29R                  
DEER LODGE       N/A     45  14  29 S7        30.29R                  
HAMILTON         N/A     45  30  57 MISG      30.23R                  
PLAINS           N/A     50  33  51 CALM      30.19R                  
RONAN            N/A     45  37  76 CALM      30.21S                  
THOMPSON FALLS   N/A     54  26  34 CALM      30.21R                  
--------------------------------

MTZ008-052.055-250500-
SOUTHWEST MONTANA
  
CITY           SKY/WX    TMP DP  RH WIND       PRES   REMARKS
BOZEMAN        FAIR      39  32  76 SE7       30.32S                  
DILLON         FAIR      40  26  57 E12       30.31S                  
ENNIS          CLEAR     39  27  60 SE6       30.37S                  
W YELLOWSTONE  FAIR      27  21  80 CALM      30.37R                  
THREE FORKS      N/A     40  33  76 CALM      30.27S                  
TWIN BRIDGES     N/A     44  28  53 E6        30.26F                  
--------------------------------

MTZ009-010-012-014-046-048-049-054-250500-
EAST SLOPES AND CENTRAL MONTANA
  
CITY           SKY/WX    TMP DP  RH WIND       PRES   REMARKS
CUT BANK       FAIR      50  16  25 W20       30.14S                  
GREAT FALLS    FAIR      50  24  36 S22G29    30.19R                  
HELENA         FAIR      48  29  47 N5        30.25R                  
CHOTEAU          N/A     48  14  25 SW8       30.18S                  
CONRAD           N/A    N/A N/A N/A S2        30.16                   
WHITE SULPHUR    N/A     41  25  52 S13G18    30.28S                  
--------------------------------

MTZ011-013-016-021-045-047-050-051-250500-
NORTH CENTRAL MONTANA
  
CITY           SKY/WX    TMP DP  RH WIND       PRES   REMARKS
HAVRE          FAIR      48  26  42 S6        30.14F                  
LEWISTOWN      FAIR      37  23  56 E5        30.23S                  
N BAR RANCH    FAIR      37  19  48 N5        30.28F                  
CHINOOK          N/A     52  27  37 S6        30.15F                  
--------------------------------

MTZ017.020-022.027-061-062-250500-
NORTHEAST MONTANA
  
CITY           SKY/WX    TMP DP  RH WIND       PRES   REMARKS
GLASGOW        FAIR      49  30  48 S8        30.23F                  
GLENDIVE       FAIR      43  33  68 SW8       30.32F                  
JORDAN           N/A     44  35  70 CALM      30.27S                  
MALTA          CLEAR     52  34  50 S15       30.17F                  
SIDNEY         FAIR      45  34  65 SW8       30.30S                  
WOLF POINT     FAIR      49  31  49 S9        30.26F                  
PLENTYWOOD       N/A     52  21  30 CALM      30.24S                  
SCOBEY           N/A     45  24  43 CALM      30.20F                  
--------------------------------

MTZ028.42-056.058-250500-
SOUTHCENTRAL AND SOUTHEAST MONTANA
  
CITY           SKY/WX    TMP DP  RH WIND       PRES   REMARKS
BAKER          FAIR      37  31  78 S12       30.36F WCI  29          
BILLINGS       FAIR      46  33  60 S6        30.31F                  
LIVINGSTON     FAIR      36  33  89 S5        30.31S                  
MILES CITY     FAIR      44  30  57 S7        30.33S                  
BIG TIMBER     CLEAR     41  34  75 S13       30.32S                  
EKALAKA          N/A     36  25  65 SE6       30.31F WCI  31FORSYTH          N/A     45  32  61 S8        30.32S                  
LAUREL           N/A     43  28  56 SW8       30.32                   
--------------------------------

REGIONAL REPORTS...DAKOTAS
  
CITY           SKY/WX    TMP DP  RH WIND       PRES   REMARKS
WILLISTON      FAIR      49  31  49 SW7       30.27F                  
MINOT          FAIR      48  25  40 SW9       30.27F                  
DICKINSON      FAIR      39  28  64 SW10      30.32F                  
BEACH          FAIR      41  28  60 SW15      30.36F                  
CROSBY         FAIR      43  28  56 SW10      30.23F                  
TIOGA          FAIR      45  30  57 SW12      30.27F                  
WATFORD CITY   FAIR      39  32  75 SW7       30.29F                  
BISMARCK       FAIR      40  27  59 CALM      30.35S                  
GRAND FORKS    FAIR      34  31  88 S5        30.33S                  
FARGO          FAIR      37  28  70 N3        30.34S                  
BUFFALO SD       N/A     43  25  49 W5        30.32F                  
RAPID CITY     FAIR      34  24  67 NW9       30.41R WCI  27          
--------------------------------

REGIONAL REPORTS...WYOMING/IDAHO/WASHINGTON
  
CITY           SKY/WX    TMP DP  RH WIND       PRES   REMARKS
GILLETTE       FAIR      30  25  81 S6        30.39R WCI  24          
SHERIDAN       FAIR      38  27  64 S5        30.35F                  
BUFFALO WY     FAIR      37  23  56 S6        30.38F                  
CODY           FAIR      38  23  55 SE9       30.37F WCI  31          
YELLOWSTONE LA   N/A     25  17  72 CALM      30.43R                  
IDAHO FALLS    FAIR      45  31  58 CALM      30.32R                  
SALMON         FAIR      46  26  45 S5        30.27R                  
BOISE          FAIR      59  32  36 SE6       30.20R                  
SPOKANE        FAIR      57  37  47 W3        30.15R                  
--------------------------------

REGIONAL REPORTS...ALBERTA
  
CITY           SKY/WX    TMP DP  RH WIND       PRES   REMARKS
CALGARY        MOCLDY    61   9  12 W9        30.02S                  
CARDSTON         N/A     54  14  20 SW8         N/A                   
EDMONTON       CLEAR     52  28  40 N8        29.96R                  
FORT MCMURRAY  CLOUDY    55  28  35 W7        29.87S                  
HIGH LEVEL     PTCLDY    48  23  37 CALM      29.93R                  
LETHBRIDGE     MOCLDY    55  21  26 SW16      30.08R                  
LLOYDMINSTER   CLOUDY    46  32  57 W6        29.94S                  
MEDICINE HAT   PTCLDY    59  21  23 S14       30.03S                  
MILK RIVER       N/A     46  25  42 NW3         N/A                   
PEACE RIVER    MOCLDY    46  28  49 W14       29.98R                  
PINCHER CREEK  MOCLDY    50  19  29 SW7       30.12S                  
WATERTON GATE    N/A     52  18  25 W10         N/A                   
--------------------------------

REGIONAL REPORTS...SASKATCHEWAN
  
CITY           SKY/WX    TMP DP  RH WIND       PRES   REMARKS
CORONACH         N/A     45  27  49 S9          N/A                   
CYPRESS HILLS    N/A     46  19  34 S8          N/A                   
ESTEVAN        MOCLDY    48  27  43 SW14      30.21F                  
MOOSE JAW        N/A     52  25  35 S14         N/A                   
PRINCE ALBERT  MOCLDY    54  32  43 W6        29.93F                  
REGINA         PTCLDY    48  27  43 S13       30.12F                  
ROCKGLEN         N/A     46  25  42 SW17        N/A                   
SASKATOON      MOCLDY    54  27  35 S13       29.99F                  
SWIFT CURRENT  MOCLDY    50  27  40 S16       30.07F                  
VAL MARIE        N/A     48  28  46 S14         N/A                   
--------------------------------